THORAD DELTA 1 DEB, 8136

Orbit data source: Space-Track

THORAD DELTA 1 DEB, 8136 is space debris in SSO originally from a launch on Fri, 15 Nov 1974 UTC launched from the Air Force Western Test Range (AFWTR). Debris objects in space refer to the collection of defunct objects orbiting the Earth. Examples of debris include non-operational satellites, rocket bodies, and fragments generated from explosions, collisions, or faulty payload assembly.

Loading next visibility...
Identifier
8136, 1974-089E
Orbit
SSO
Country
Flag of USUS
Related business
Manufacturer
Unknown
Mission
Spacecraft
Bus & Motor
Unknown
Mass
Unknown
Launch date (UTC)
1974-11-15 (51 years ago)
Launch vehicle
Unknown
Launch site
Air Force Western Test Range (AFWTR)
Object type
Payload
Rocket body
Debris
Shape & HBR
Unknown shape, 2.4 m
Radar Cross Section
Large (>1 m²)

Expand to show TLE details & history
Last TLE update: 10 hours ago

TLE from 10 hours ago
0 THORAD DELTA 1 DEB
1  8136U 74089E   26125.99365344 -.00000033  00000-0  47511-4 0  9994
2  8136 101.0637 119.9210 0074508 139.6880 228.4514 12.64807118100454
Epoch: 2026-05-05T23:50Z
TLE epoch observation values (Epoch: 2026-05-05T23:50:51.657Z)
Latitude
7.29977°
Longitude
-103.08298°
Altitude
1,443.837 km
Speed
7.123 km/s
True Right ascension
07h 53m 58s
True Declination
7° 15' 37"
Sunlit
Object was in daylight at epoch
Visualization orbit readout
Latitude
Unknown
Longitude
Unknown
Altitude
Unknown
Speed
Unknown
Apparent Right ascension
Unknown
Apparent Declination
Unknown
Sunlit
N/A
Visualization observer readout
Local Sidereal Time
17:44:14
Azimuth
Unknown
Elevation
Unknown
Doppler factor
Unknown
Orbital elements
Apogee altitude
1,458.612 km
Perigee altitude
1,342.695 km
Semi-major axis
7,778.791 km
Eccentricity
0.00745
Inclination
101.0637°
RAAN
119.921°
Arg. of periapsis
139.688°
True anomaly
227.81636°
Mean anomaly
228.4514°
Eccentric anomaly
228.13349°
Mean motion
3.16355 °/min
Orbital period
113.8 mins
BSTAR
0.000047511
Loading maneuver chart data...
Computing Atmospheric mass density...

Documentation

Showing up to 5 results
|